Change the Weather History Date:

Monday, March 17, 2014

  Actual Average Record
Temperature  
Mean Temperature 82 °F -  
Max Temperature 95 °F 93 °F 98 °F (1998)
Min Temperature 69 °F 76 °F 69 °F (2007)
Cooling Degree Days 17    
Growing Degree Days 32 (Base 50)    
Moisture  
Dew Point 66 °F    
Average Humidity 50    
Maximum Humidity 83    
Minimum Humidity 30    
Precipitation  
Precipitation 0.00 in - - ()
Sea Level Pressure  
Sea Level Pressure 29.70 in    
Wind  
Wind Speed 6 mph ()    
Max Wind Speed 16 mph    
Max Gust Speed -    
Visibility 8.0 miles    
Events      
Averages and records for this station are not official NWS values.
T = Trace of Precipitation, MM = Missing Value Source: Averaged Metar Reports

Daily Weather History Graph

Daily Weather History Graph

Search for Another Location

Airport or City:

Trip Planner

Search our weather history database for the weather conditions in past years. The results will help you decide how hot, cold, wet, or windy it might be!

Date:

Astronomy

Mar. 17, 2014 Rise Set
Actual Time 5:48 AM CST 5:52 PM CST
Civil Twilight 5:27 AM CST 6:13 PM CST
Nautical Twilight 5:02 AM CST 6:38 PM CST
Astronomical Twilight 4:38 AM CST 7:02 PM CST
Moon 6:49 PM CST (3/17) 6:17 AM CST (3/17)
Length of Visible Light 12h 46m
Length of Day
12h 04m
Full, 99% of the Moon is Illuminated
Mar 17
Full
Mar 23
Last Quarter
Mar 30
New
Apr 7
First Quarter
Apr 15
Full

Hourly Weather History & Observations

Time (CST) Temp. Heat Index Dew Point Humidity Pressure Visibility Wind Dir Wind Speed Gust Speed Precip Events Conditions
6:00 AM 70 °F - 64 °F 75% 29.55 in 12 mi East 3.5 mph - -   Clear
6:00 AM 69.8 °F - 64.4 °F 83% 29.78 in - East 3.5 mph - N/A   Clear
7:00 AM 73.4 °F - 64.4 °F 73% 29.81 in - ENE 3.5 mph - N/A   Clear
8:00 AM 82.4 °F 83.9 °F 64.4 °F 54% 29.82 in - NE 3.5 mph - N/A   Clear
9:00 AM 88 °F - 65 °F 36% 29.59 in 12 mi ESE 4.6 mph - -  
9:00 AM 87.8 °F 89.4 °F 64.4 °F 46% 29.83 in - ESE 4.6 mph - N/A   Clear
10:00 AM 87.8 °F 90.4 °F 66.2 °F 49% 29.82 in 6.2 mi SE 4.6 mph - N/A   Partly Cloudy
11:00 AM 91.4 °F 94.0 °F 66.2 °F 43% 29.80 in 6.2 mi NNW 4.6 mph - N/A   Scattered Clouds
12:00 PM 93 °F - 65 °F 30% 29.53 in 12 mi West 5.8 mph - -   Partly Cloudy
12:00 PM 93.2 °F 94.9 °F 64.4 °F 38% 29.77 in 6.2 mi West 5.8 mph - N/A   Scattered Clouds
1:00 PM 93.2 °F 96.2 °F 66.2 °F 41% 29.74 in 6.2 mi West 12.7 mph - N/A   Scattered Clouds
2:00 PM 93.2 °F 94.9 °F 64.4 °F 38% 29.70 in 6.2 mi West 11.5 mph - N/A   Scattered Clouds
3:00 PM 91 °F - 66 °F 34% 29.45 in 12 mi WNW 15.0 mph - -   Scattered Clouds
3:00 PM 91.4 °F 94.0 °F 66.2 °F 43% 29.69 in 6.2 mi WNW 15.0 mph - N/A   Mostly Cloudy
4:00 PM 87.8 °F 91.4 °F 68.0 °F 52% 29.68 in 6.2 mi West 16.1 mph - N/A   Mostly Cloudy
5:00 PM 86.0 °F 89.4 °F 68.0 °F 55% 29.69 in 6.2 mi ENE 13.8 mph - N/A   Mostly Cloudy
6:00 PM 84 °F - 66 °F 46% 29.49 in 12 mi WSW 9.2 mph - -   Overcast
6:00 PM 84.2 °F 86.6 °F 66.2 °F 55% 29.72 in 6.2 mi WSW 9.2 mph - N/A   Mostly Cloudy
7:00 PM 82.4 °F 84.6 °F 66.2 °F 58% 29.75 in 6.2 mi West 4.6 mph - N/A   Mostly Cloudy
8:00 PM 80.6 °F 82.7 °F 66.2 °F 61% 29.76 in 6.2 mi South 3.5 mph - N/A   Mostly Cloudy